Temp
-7 -7 -7 -6 -6 -5 -5 -5 -6 -6 -7 -8 -8 -8 -8 -8 -8 -8 -7 -7 -7 -7 -7 -7 -7 -7 -6 -6 -5 -5 -5 -5 -5 -5 -5 -5 -5 -5 -5 -5 -5 -5 -5 -5 -5 -5 -5 -5 -6
-8 -8 -7 -6 -6 -5 -5 -6 -6 -7 -8 -8 -8 -8 -8 -8 -8 -8 -8 -7 -7 -7 -7 -8 -8 -7 -7 -6 -6 -6 -6 -5 -6 -5 -5 -5 -5 -5 -5 -5 -6 -6 -6 -6 -6 -6 -6 -6 -6
-10 -8 -8 -7 -6 -5 -6 -6 -7 -8 -8 -8 -8 -7 -8 -8 -8 -8 -8 -8 -7 -6 -7 -8 -8 -8 -7 -7 -6 -6 -6 -6 -6 -6 -6 -6 -5 -5 -6 -6 -6 -6 -6 -6 -7 -7 -7 -7 -7
-10 -9 -8 -7 -7 -6 -7 -7 -7 -8 -8 -8 -7 -9 -8 -8 -8 -8 -8 -7 -8 -7 -7 -8 -8 -8 -7 -7 -7 -6 -6 -6 -6 -6 -6 -6 -6 -6 -6 -7 -7 -7 -7 -7 -7 -8 -8 -8 -8
-10 -10 -9 -8 -7 -7 -7 -8 -8 -8 -8 -8 -8 -9 -8 -8 -8 -8 -7 -7 -8 -8 -7 -8 -8 -8 -8 -7 -7 -7 -7 -7 -6 -6 -7 -7 -7 -7 -7 -7 -7 -8 -8 -8 -8 -8 -9 -9 -10
-10 -9 -10 -9 -8 -7 -8 -8 -8 -8 -8 -8 -8 -9 -9 -8 -8 -7 -7 -7 -7 -8 -8 -8 -8 -8 -8 -7 -7 -7 -7 -7 -7 -7 -7 -7 -7 -8 -8 -8 -8 -9 -8 -8 -9 -9 -9 -10 -10
-11 -11 -9 -10 -8 -7 -8 -8 -9 -9 -8 -9 -7 -9 -9 -8 -8 -7 -8 -8 -8 -8 -8 -8 -8 -8 -8 -8 -7 -7 -7 -7 -7 -7 -7 -7 -7 -8 -8 -9 -9 -9 -9 -9 -9 -9 -10 -10 -10
-11 -10 -9 -8 -8 -7 -9 -8 -9 -9 -9 -9 -9 -9 -9 -9 -9 -8 -8 -8 -7 -7 -7 -8 -8 -8 -8 -8 -8 -8 -8 -7 -7 -7 -7 -8 -8 -8 -9 -9 -9 -9 -10 -10 -10 -10 -10 -10 -11
-11 -9 -9 -7 -8 -8 -11 -8 -9 -10 -10 -9 -10 -9 -7 -8 -9 -9 -8 -8 -8 -8 -8 -8 -8 -9 -9 -8 -8 -8 -8 -8 -8 -8 -8 -8 -8 -9 -9 -10 -10 -10 -10 -10 -10 -10 -10 -11 -11
-11 -9 -8 -10 -11 -11 -12 -9 -9 -9 -9 -10 -10 -9 -9 -9 -10 -10 -9 -8 -8 -8 -8 -8 -9 -9 -9 -8 -9 -8 -8 -8 -8 -8 -8 -8 -9 -9 -9 -10 -10 -10 -10 -10 -10 -10 -11 -11 -12
-11 -9 -9 -10 -11 -11 -12 -11 -9 -9 -9 -10 -10 -9 -8 -9 -10 -10 -9 -9 -8 -8 -8 -8 -9 -9 -9 -8 -9 -9 -8 -9 -8 -9 -8 -9 -9 -9 -10 -10 -10 -10 -10 -10 -10 -10 -11 -12 -12
-10 -10 -10 -10 -10 -10 -10 -11 -10 -10 -9 -9 -9 -9 -8 -9 -10 -9 -7 -8 -9 -8 -8 -9 -8 -9 -10 -10 -10 -9 -9 -9 -9 -9 -9 -9 -9 -9 -10 -10 -10 -10 -11 -11 -10 -11 -11 -12 -13
-11 -11 -10 -10 -10 -10 -11 -11 -10 -11 -10 -10 -10 -9 -9 -9 -10 -9 -9 -8 -8 -9 -9 -9 -8 -8 -10 -10 -10 -9 -10 -9 -9 -9 -9 -9 -9 -10 -10 -10 -10 -10 -10 -10 -10 -11 -11 -11 -12
-11 -11 -11 -11 -10 -10 -10 -10 -11 -10 -11 -11 -11 -10 -10 -10 -10 -9 -8 -9 -10 -9 -8 -8 -8 -9 -9 -10 -9 -9 -10 -10 -10 -9 -10 -9 -9 -9 -10 -10 -11 -11 -10 -10 -11 -11 -11 -12 -12
-11 -11 -10 -11 -11 -11 -12 -11 -10 -10 -10 -11 -11 -11 -11 -10 -11 -10 -9 -9 -9 -9 -10 -9 -9 -8 -8 -9 -10 -9 -10 -10 -10 -9 -10 -10 -10 -10 -10 -10 -11 -11 -11 -10 -11 -11 -11 -12 -12
-12 -11 -11 -11 -12 -12 -13 -10 -10 -11 -11 -12 -11 -10 -11 -12 -12 -11 -11 -10 -9 -10 -10 -8 -9 -10 -10 -10 -9 -10 -10 -10 -9 -9 -9 -10 -10 -10 -10 -10 -10 -10 -11 -10 -11 -11 -11 -12 -12
-13 -12 -12 -12 -13 -13 -13 -10 -10 -11 -11 -11 -12 -11 -11 -12 -12 -12 -12 -11 -11 -10 -9 -9 -9 -8 -9 -9 -9 -11 -10 -10 -9 -9 -9 -9 -10 -10 -10 -10 -10 -11 -11 -10 -11 -11 -11 -12 -12
-13 -12 -12 -12 -12 -13 -12 -10 -10 -10 -11 -10 -11 -11 -11 -12 -12 -12 -12 -11 -11 -10 -10 -10 -9 -9 -10 -9 -10 -10 -10 -10 -9 -9 -9 -9 -10 -10 -10 -10 -11 -11 -10 -10 -11 -11 -11 -11 -12
-12 -12 -12 -12 -12 -12 -12 -10 -10 -11 -11 -10 -10 -10 -10 -10 -11 -12 -12 -12 -12 -11 -10 -10 -10 -9 -10 -11 -10 -9 -8 -9 -8 -9 -9 -10 -10 -10 -10 -10 -11 -11 -10 -10 -11 -11 -11 -11 -12
-13 -13 -13 -13 -13 -13 -13 -12 -11 -11 -11 -11 -11 -10 -10 -11 -10 -11 -12 -13 -12 -12 -12 -11 -10 -10 -9 -9 -9 -8 -8 -9 -9 -9 -10 -10 -11 -10 -10 -10 -11 -11 -11 -11 -11 -11 -11 -11 -11
-14 -13 -13 -13 -13 -13 -13 -12 -11 -11 -11 -11 -11 -11 -11 -11 -11 -11 -11 -11 -12 -13 -13 -12 -11 -10 -9 -9 -9 -9 -9 -9 -9 -10 -10 -10 -11 -9 -10 -11 -11 -11 -11 -10 -11 -11 -11 -11 -12
-15 -15 -15 -14 -14 -14 -15 -12 -12 -11 -12 -11 -11 -11 -11 -11 -11 -11 -11 -11 -12 -12 -13 -12 -12 -11 -9 -10 -10 -9 -9 -9 -9 -10 -9 -10 -10 -10 -11 -11 -11 -10 -10 -10 -11 -11 -11 -11 -12
-15 -16 -16 -15 -15 -15 -13 -15 -10 -12 -12 -12 -12 -12 -12 -12 -12 -11 -11 -11 -11 -11 -12 -12 -12 -11 -11 -10 -9 -9 -9 -9 -9 -9 -9 -9 -9 -9 -11 -11 -10 -10 -10 -11 -11 -11 -11 -12 -12
-18 -17 -16 -16 -16 -16 -15 -18 -11 -12 -12 -13 -14 -14 -13 -12 -12 -11 -11 -11 -11 -11 -11 -12 -11 -11 -11 -10 -9 -9 -9 -9 -9 -9 -9 -9 -10 -10 -10 -10 -10 -10 -10 -11 -11 -11 -11 -12 -11
-20 -20 -19 -18 -19 -18 -20 -18 -13 -13 -15 -14 -13 -14 -14 -13 -12 -12 -12 -12 -11 -11 -11 -11 -11 -11 -10 -10 -10 -10 -9 -9 -9 -9 -9 -9 -10 -10 -10 -9 -9 -10 -10 -11 -11 -12 -11 -11 -11
-20 -20 -21 -22 -21 -20 -21 -19 -18 -16 -18 -16 -15 -14 -14 -14 -13 -12 -12 -12 -11 -10 -11 -11 -11 -10 -10 -10 -10 -10 -10 -10 -9 -9 -9 -9 -10 -10 -9 -9 -10 -10 -10 -11 -11 -12 -11 -11 -12
-21 -20 -21 -22 -21 -21 -20 -20 -19 -19 -19 -19 -18 -16 -15 -14 -14 -13 -13 -12 -11 -11 -10 -11 -11 -10 -10 -10 -10 -10 -10 -9 -9 -9 -10 -10 -10 -10 -10 -10 -10 -10 -11 -11 -12 -11 -11 -12 -12
-22 -21 -21 -21 -22 -21 -20 -20 -20 -20 -20 -20 -19 -19 -18 -15 -14 -14 -13 -13 -12 -11 -11 -10 -11 -10 -10 -10 -10 -10 -10 -10 -10 -10 -10 -10 -10 -10 -10 -10 -10 -11 -11 -11 -11 -11 -12 -12 -12
-21 -22 -21 -21 -21 -21 -21 -20 -21 -20 -20 -19 -19 -19 -18 -17 -16 -14 -13 -14 -12 -12 -11 -10 -11 -10 -11 -10 -10 -10 -10 -10 -11 -10 -10 -10 -10 -10 -10 -10 -11 -11 -11 -11 -11 -11 -12 -12 -12
-21 -21 -22 -22 -22 -21 -21 -20 -21 -21 -21 -20 -19 -20 -19 -18 -16 -14 -14 -13 -12 -12 -11 -11 -10 -11 -11 -11 -11 -10 -10 -11 -10 -10 -10 -10 -10 -10 -10 -11 -11 -10 -11 -11 -11 -11 -11 -11 -12
Height
5853 5857 5860 5865 5872 5875 5880 5885 5883 5889 5890 5888 5888 5887 5889 5890 5893 5897 5896 5898 5901 5902 5901 5901 5903 5903 5903 5903 5903 5902 5901 5900 5897 5894 5893 5893 5891 5889 5887 5885 5883 5880 5876 5873 5871 5870 5867 5865 5862
5847 5851 5854 5860 5866 5872 5878 5879 5884 5882 5880 5880 5880 5881 5886 5890 5892 5894 5892 5895 5901 5901 5900 5900 5900 5902 5902 5902 5902 5901 5899 5898 5897 5894 5892 5891 5888 5887 5886 5884 5881 5878 5876 5872 5870 5867 5864 5862 5860
5841 5844 5847 5853 5860 5870 5874 5876 5873 5876 5874 5878 5881 5880 5882 5888 5892 5893 5892 5894 5901 5901 5899 5897 5899 5900 5901 5901 5900 5899 5897 5897 5894 5893 5891 5889 5887 5885 5884 5882 5878 5876 5873 5870 5868 5865 5862 5860 5857
5832 5837 5841 5846 5857 5863 5867 5869 5872 5869 5869 5871 5875 5878 5879 5884 5888 5889 5890 5892 5897 5897 5894 5895 5897 5897 5899 5900 5899 5897 5896 5895 5892 5891 5889 5887 5886 5883 5881 5879 5875 5873 5871 5868 5865 5862 5859 5857 5854
5828 5829 5833 5841 5853 5858 5861 5862 5863 5863 5864 5868 5869 5869 5874 5878 5883 5884 5885 5889 5892 5892 5892 5893 5894 5894 5896 5898 5897 5896 5894 5893 5892 5890 5887 5884 5882 5880 5878 5876 5874 5871 5869 5866 5864 5860 5857 5854 5851
5820 5825 5826 5834 5844 5850 5852 5854 5853 5852 5857 5860 5863 5864 5865 5869 5874 5877 5880 5883 5886 5887 5888 5890 5891 5892 5894 5895 5895 5896 5893 5892 5891 5888 5884 5882 5880 5877 5875 5873 5871 5868 5867 5864 5861 5858 5856 5853 5850
5813 5815 5823 5828 5835 5844 5850 5851 5852 5850 5852 5856 5855 5860 5860 5862 5866 5870 5873 5875 5878 5881 5884 5886 5887 5889 5890 5891 5892 5893 5891 5889 5888 5886 5883 5881 5879 5876 5873 5871 5868 5866 5864 5860 5858 5857 5853 5850 5848
5808 5810 5815 5822 5831 5838 5840 5842 5844 5845 5846 5850 5854 5854 5855 5857 5861 5863 5865 5868 5872 5876 5878 5881 5883 5885 5886 5887 5889 5888 5888 5887 5885 5883 5882 5880 5877 5873 5870 5868 5866 5864 5861 5857 5856 5852 5850 5847 5845
5800 5802 5806 5817 5825 5833 5830 5835 5839 5836 5837 5843 5844 5847 5848 5853 5856 5857 5860 5862 5866 5868 5872 5875 5878 5881 5882 5884 5885 5885 5885 5884 5882 5881 5880 5878 5873 5870 5868 5867 5864 5861 5858 5855 5852 5850 5848 5844 5841
5791 5797 5802 5809 5813 5814 5816 5826 5829 5831 5832 5836 5839 5840 5846 5843 5848 5852 5855 5859 5861 5864 5867 5869 5873 5877 5878 5880 5881 5883 5882 5881 5879 5878 5877 5875 5871 5868 5866 5864 5861 5859 5856 5853 5850 5847 5844 5840 5836
5785 5788 5797 5799 5802 5805 5812 5817 5822 5826 5829 5834 5835 5837 5835 5839 5840 5845 5850 5853 5857 5859 5859 5863 5866 5869 5873 5875 5878 5878 5878 5877 5875 5874 5874 5872 5869 5866 5863 5860 5859 5856 5852 5850 5847 5844 5840 5836 5832
5776 5779 5785 5790 5791 5794 5802 5808 5810 5816 5828 5827 5833 5832 5833 5832 5835 5839 5843 5846 5849 5853 5854 5857 5858 5860 5864 5869 5871 5872 5873 5872 5872 5870 5870 5869 5867 5864 5860 5858 5855 5852 5849 5846 5843 5840 5837 5832 5829
5769 5773 5773 5779 5783 5786 5788 5794 5801 5804 5816 5818 5823 5827 5831 5828 5827 5831 5835 5839 5842 5847 5852 5851 5854 5854 5856 5859 5860 5865 5866 5867 5868 5867 5866 5865 5865 5860 5857 5855 5852 5848 5845 5842 5839 5836 5833 5828 5824
5762 5765 5768 5772 5776 5778 5777 5784 5786 5800 5805 5806 5811 5819 5822 5823 5820 5825 5828 5829 5831 5836 5843 5844 5847 5848 5851 5854 5855 5858 5859 5861 5862 5863 5861 5860 5860 5857 5854 5852 5848 5844 5841 5838 5833 5831 5828 5824 5820
5753 5755 5758 5762 5763 5763 5764 5770 5781 5794 5796 5796 5799 5806 5811 5815 5815 5815 5819 5823 5826 5827 5830 5836 5841 5842 5843 5843 5845 5847 5851 5854 5857 5858 5857 5855 5854 5853 5851 5848 5844 5840 5838 5833 5829 5826 5823 5819 5815
5743 5746 5750 5753 5749 5749 5749 5761 5774 5777 5778 5783 5789 5793 5802 5803 5807 5808 5809 5814 5817 5821 5822 5825 5827 5832 5835 5834 5832 5838 5843 5847 5850 5851 5851 5849 5848 5847 5846 5844 5839 5834 5832 5829 5824 5820 5817 5813 5810
5733 5737 5739 5740 5737 5734 5736 5753 5764 5761 5760 5765 5771 5778 5786 5791 5796 5800 5800 5803 5806 5809 5814 5817 5817 5822 5826 5825 5829 5833 5836 5839 5842 5843 5844 5843 5842 5840 5840 5838 5834 5829 5826 5823 5819 5814 5811 5808 5804
5722 5723 5727 5726 5726 5724 5728 5741 5748 5751 5746 5751 5757 5758 5763 5774 5783 5790 5793 5793 5798 5800 5804 5805 5806 5812 5814 5815 5821 5825 5828 5833 5834 5835 5837 5836 5834 5833 5833 5831 5828 5822 5819 5815 5812 5809 5805 5802 5798
5712 5713 5713 5713 5714 5716 5719 5726 5734 5738 5739 5743 5747 5751 5755 5764 5767 5772 5780 5786 5785 5788 5794 5796 5798 5803 5809 5811 5815 5817 5819 5822 5824 5825 5826 5825 5823 5823 5825 5822 5820 5815 5812 5808 5804 5802 5799 5795 5792
5701 5701 5700 5703 5702 5703 5704 5711 5723 5726 5727 5733 5736 5741 5745 5750 5759 5762 5763 5769 5773 5778 5782 5785 5790 5794 5797 5803 5807 5809 5813 5813 5814 5815 5816 5812 5810 5812 5814 5812 5811 5807 5804 5800 5796 5795 5791 5788 5786
5689 5686 5685 5687 5690 5688 5684 5699 5706 5712 5711 5716 5722 5725 5730 5735 5741 5748 5750 5753 5759 5763 5771 5775 5776 5780 5788 5793 5796 5798 5803 5806 5808 5810 5811 5806 5804 5805 5804 5802 5800 5798 5796 5793 5788 5787 5784 5781 5779
5677 5676 5673 5674 5673 5673 5677 5677 5689 5697 5696 5698 5704 5708 5713 5715 5721 5729 5740 5743 5745 5750 5756 5760 5766 5771 5776 5782 5785 5790 5794 5795 5798 5800 5799 5797 5797 5797 5796 5794 5791 5789 5787 5785 5781 5781 5778 5775 5772
5665 5664 5661 5661 5657 5654 5665 5653 5677 5679 5681 5687 5688 5689 5692 5699 5704 5713 5721 5732 5738 5742 5746 5750 5752 5758 5765 5770 5777 5784 5786 5786 5785 5785 5785 5785 5786 5788 5787 5784 5782 5780 5778 5776 5775 5774 5771 5768 5766
5651 5649 5649 5647 5645 5639 5649 5642 5657 5660 5665 5665 5666 5667 5673 5681 5688 5694 5702 5712 5725 5730 5734 5741 5745 5748 5752 5758 5766 5774 5776 5777 5775 5775 5774 5774 5776 5777 5776 5775 5774 5771 5769 5768 5768 5766 5763 5762 5760
5641 5637 5632 5633 5631 5630 5630 5628 5640 5641 5640 5638 5641 5649 5655 5666 5674 5682 5689 5699 5709 5717 5721 5728 5735 5740 5745 5750 5756 5763 5765 5765 5764 5763 5765 5766 5767 5765 5765 5766 5766 5763 5762 5761 5761 5759 5756 5755 5753
5636 5634 5629 5619 5621 5620 5621 5618 5625 5623 5620 5622 5625 5628 5638 5647 5658 5669 5676 5684 5693 5702 5713 5718 5723 5731 5736 5741 5747 5752 5753 5754 5754 5754 5757 5758 5757 5756 5759 5758 5756 5755 5755 5755 5753 5752 5750 5748 5745
5628 5626 5622 5614 5615 5610 5615 5616 5616 5615 5611 5611 5611 5613 5618 5630 5641 5652 5661 5671 5680 5688 5697 5708 5714 5719 5723 5730 5735 5740 5744 5744 5745 5746 5748 5748 5748 5750 5751 5750 5748 5748 5748 5748 5746 5744 5743 5741 5739
5620 5617 5614 5609 5607 5604 5606 5604 5607 5607 5603 5604 5603 5602 5605 5612 5623 5636 5648 5658 5666 5675 5683 5693 5702 5709 5714 5718 5722 5727 5732 5733 5734 5737 5739 5741 5742 5742 5742 5742 5742 5742 5742 5740 5739 5737 5736 5734 5732
5615 5608 5605 5603 5603 5598 5596 5596 5598 5596 5595 5593 5592 5591 5592 5597 5607 5621 5630 5642 5654 5664 5674 5684 5693 5699 5703 5708 5713 5717 5720 5722 5725 5729 5732 5734 5734 5734 5735 5735 5735 5735 5735 5733 5732 5731 5729 5727 5725
5605 5600 5596 5594 5595 5593 5590 5589 5590 5587 5586 5582 5583 5583 5582 5584 5596 5606 5617 5630 5642 5653 5663 5673 5682 5688 5693 5697 5702 5706 5710 5715 5719 5723 5724 5726 5726 5727 5727 5728 5729 5729 5728 5726 5725 5724 5722 5720 5718
Wind_Speed
42 40 39 37 32 28 23 21 24 20 19 24 21 22 15 16 21 25 28 24 13 10 6 3 5 7 8 9 12 13 14 13 10 10 13 14 15 17 18 19 20 18 17 18 18 18 18 18 18
43 42 41 38 34 29 23 24 22 26 29 33 24 25 16 23 28 31 36 33 18 15 8 6 6 8 9 12 14 14 12 11 12 12 13 15 17 19 21 20 18 16 17 17 17 18 19 19 19
31 42 41 42 35 30 26 26 33 29 26 24 24 20 22 26 29 35 39 36 21 15 10 8 9 11 14 15 13 12 10 10 11 13 15 17 17 18 19 19 18 18 19 18 18 18 18 18 18
27 31 42 42 34 34 27 29 33 35 31 27 24 17 28 34 35 39 39 37 34 18 13 12 16 14 16 17 12 7 7 10 14 16 17 17 18 18 17 18 18 18 19 18 18 18 18 19 20
46 32 34 39 37 33 30 33 41 41 37 29 27 26 31 35 33 34 38 30 29 23 17 15 17 16 16 17 11 9 9 12 15 17 19 21 21 20 19 18 19 20 19 18 17 17 18 18 19
51 51 39 32 35 36 34 43 44 47 41 32 27 23 36 38 36 33 35 27 23 20 20 18 18 20 18 18 13 13 15 17 17 21 23 23 24 22 20 19 20 22 23 21 19 19 17 18 19
41 46 52 37 34 36 31 39 35 37 39 38 35 21 31 38 35 33 28 31 31 29 26 24 22 23 22 22 21 19 17 18 19 20 23 24 24 23 23 23 24 25 25 22 21 20 19 19 20
46 50 50 51 39 38 31 42 41 41 37 29 26 32 36 37 28 33 36 33 30 31 28 27 26 25 27 24 24 20 18 18 19 20 22 25 24 25 25 26 26 25 26 24 23 23 24 22 22
42 42 40 46 48 38 35 44 46 43 44 40 32 34 36 31 28 26 31 37 34 33 33 31 28 27 29 27 25 20 18 17 17 18 22 24 24 26 26 26 26 25 26 25 24 24 26 23 24
42 40 34 40 42 40 37 51 44 52 48 42 37 39 36 31 27 31 32 31 36 35 34 30 32 30 31 29 28 21 18 18 18 19 22 24 23 26 27 28 28 26 26 26 25 25 27 25 25
46 43 38 33 45 46 40 43 49 46 56 47 43 45 43 34 31 33 33 37 37 37 41 33 32 36 37 33 25 19 18 19 19 19 22 26 25 26 28 29 31 29 28 28 27 26 27 25 25
42 43 43 40 41 51 48 44 49 53 46 56 46 49 48 51 37 35 42 42 42 39 36 33 32 37 36 33 26 13 19 23 23 22 23 26 26 27 28 32 32 31 30 29 28 27 27 25 24
41 42 45 42 42 44 54 55 49 52 60 48 52 56 49 50 49 43 43 44 48 43 39 37 37 36 42 37 27 18 17 21 26 25 26 27 28 26 27 31 34 34 33 30 30 28 28 26 24
40 42 43 41 40 42 47 51 63 50 47 58 60 49 53 53 56 59 55 48 36 50 48 43 43 42 50 44 20 21 21 25 28 28 29 29 30 29 30 33 37 38 36 32 30 29 30 26 25
40 43 44 44 42 43 44 48 44 48 59 55 62 66 50 51 58 61 60 57 45 45 48 45 47 43 46 52 20 23 24 29 29 30 29 32 32 30 32 34 37 38 38 33 31 29 31 26 25
41 42 42 41 44 45 44 47 40 43 53 54 64 60 52 53 59 62 61 60 58 52 49 49 50 52 57 63 32 21 26 31 33 33 30 33 35 32 33 34 36 37 39 37 34 30 31 26 25
43 43 46 46 47 50 52 49 44 45 53 53 53 67 64 54 61 62 65 58 58 58 54 53 53 54 55 53 43 31 30 37 39 38 34 34 36 34 33 34 34 39 38 40 36 32 31 27 26
42 45 45 49 51 54 54 50 49 51 55 56 55 56 60 54 63 63 64 61 61 61 57 53 54 53 51 42 47 48 42 43 45 41 36 36 37 36 36 38 36 40 40 40 38 33 32 27 27
43 46 48 50 52 55 57 54 53 54 56 57 57 59 60 54 63 66 64 66 64 64 61 62 63 61 58 57 56 53 50 50 47 41 39 39 41 40 38 38 38 41 41 41 37 35 33 28 29
43 46 49 49 51 54 56 57 51 53 56 57 59 59 59 57 59 63 72 67 71 69 67 64 63 63 62 59 56 57 54 52 50 46 42 42 45 44 44 44 43 45 44 41 36 37 33 30 31
41 46 51 53 54 56 59 58 56 56 59 58 57 58 59 59 59 59 66 70 71 72 72 67 66 64 57 55 58 59 56 48 50 49 44 46 47 45 47 48 49 46 46 40 36 37 33 31 31
41 43 48 49 53 56 54 62 58 58 61 62 61 60 60 61 60 60 59 64 68 68 71 71 67 65 61 57 53 43 38 39 43 47 49 50 49 47 49 50 50 42 42 37 35 36 32 30 30
38 40 44 49 54 58 56 62 58 57 60 59 63 62 63 62 63 60 59 55 62 64 67 69 70 64 59 53 45 34 33 36 47 52 53 52 49 43 47 49 42 39 37 33 36 34 28 29 31
37 41 46 47 47 55 54 55 59 60 59 57 59 65 67 66 65 64 61 59 55 58 63 64 62 58 56 53 43 36 35 34 33 36 44 46 43 43 44 43 36 36 33 33 35 30 28 29 29
27 33 40 40 35 38 37 48 57 60 59 64 66 63 65 66 68 64 61 60 59 56 56 57 60 57 53 48 40 34 34 36 38 38 33 32 35 37 39 33 35 32 31 32 32 27 28 28 26
29 30 31 37 28 22 23 36 34 45 43 55 64 67 64 63 65 65 65 63 59 57 54 55 55 54 53 49 41 34 32 36 40 37 30 33 34 36 32 31 32 30 31 31 29 26 28 26 27
31 32 29 37 35 35 20 20 30 27 33 35 45 56 60 58 61 61 64 63 61 58 53 47 51 49 47 43 40 36 35 37 40 37 35 34 38 31 30 30 30 28 30 28 26 27 25 25 28
30 34 32 30 31 33 27 29 26 30 36 37 37 42 51 58 54 55 56 58 60 59 56 49 43 44 43 41 38 37 37 37 35 34 35 36 33 30 29 28 27 28 27 25 25 26 26 28 27
29 32 32 30 30 37 35 29 24 25 29 34 38 43 43 50 51 50 53 54 55 56 56 52 42 39 39 39 39 37 37 36 34 33 33 33 31 29 28 26 26 25 25 22 23 27 28 26 24
30 29 33 34 34 27 29 29 25 24 22 31 38 40 45 46 49 50 50 52 53 52 51 49 47 44 43 39 37 38 38 37 34 30 30 30 29 27 26 26 25 23 21 21 24 23 23 23 21
Wind_Direction
221 220 221 220 219 212 202 189 190 188 177 175 193 200 210 261 252 254 261 257 239 205 221 310 323 332 326 306 294 291 310 326 327 337 340 341 343 340 342 347 351 350 348 348 345 341 339 336 334
225 221 223 221 214 209 202 197 183 175 177 189 198 208 230 222 248 248 252 256 242 237 227 252 295 329 339 331 302 295 300 311 331 346 344 336 338 336 335 342 349 351 347 346 344 342 341 337 332
230 225 225 221 213 201 203 194 183 185 197 194 198 225 250 247 238 239 249 256 241 267 239 252 272 302 313 320 319 298 300 312 336 346 350 347 339 335 332 340 350 352 352 351 348 346 342 338 332
212 226 227 225 211 205 199 199 186 193 196 192 195 247 247 245 238 238 245 255 254 254 239 249 264 287 302 321 317 291 316 330 341 335 340 340 341 338 337 343 351 354 354 354 351 345 345 342 336
223 215 228 226 215 205 204 189 186 195 196 197 202 228 243 247 248 247 246 247 247 243 255 250 259 277 295 301 314 281 304 326 339 342 343 348 349 348 346 348 350 355 351 353 351 347 343 339 341
240 227 219 216 215 208 196 189 192 201 197 193 200 238 241 243 246 241 242 245 236 238 247 252 262 267 279 287 292 290 291 310 323 341 347 352 348 350 351 351 356 360 353 350 350 345 337 336 336
238 244 229 220 204 208 206 200 195 202 200 201 201 201 243 245 241 233 239 239 234 243 250 254 258 264 270 280 285 292 298 303 318 329 340 345 348 351 353 353 355 357 352 346 346 338 337 335 334
229 241 239 227 212 200 211 201 200 202 194 194 198 202 224 231 233 238 237 244 242 243 246 247 254 260 266 277 278 282 299 304 316 325 331 339 344 353 357 352 350 348 350 344 337 337 333 331 332
238 247 244 235 228 221 225 208 205 209 200 195 202 207 212 207 221 228 232 239 241 244 250 248 252 255 264 273 273 282 296 306 310 318 326 334 343 350 351 350 348 343 345 338 332 331 327 328 329
241 250 252 247 238 234 228 209 217 218 210 198 195 210 210 204 230 228 235 240 236 242 245 249 255 256 263 266 271 280 290 304 312 310 322 327 338 344 348 345 344 340 336 335 328 326 324 326 329
241 243 246 247 233 232 228 235 223 226 227 208 202 211 217 228 226 238 236 247 246 243 248 250 251 253 253 257 270 272 287 303 306 307 315 322 330 339 347 344 338 334 332 330 325 322 319 324 327
240 243 241 236 233 231 229 222 220 224 224 232 219 217 224 231 237 236 253 238 243 245 246 239 245 244 240 248 256 266 289 299 307 311 307 316 322 331 341 341 336 327 329 321 320 317 316 320 322
239 240 244 240 236 238 235 229 227 225 220 230 231 231 230 232 238 237 244 246 240 242 246 242 247 247 234 226 226 249 273 299 300 305 309 308 313 327 333 337 337 331 324 317 313 314 311 315 319
245 244 247 248 249 247 244 237 231 225 223 228 231 232 231 230 233 239 237 243 250 247 244 248 250 258 248 227 246 262 282 291 300 297 303 300 306 315 321 327 330 331 321 314 308 310 306 313 314
244 244 242 243 244 245 247 240 238 238 227 227 229 224 219 225 229 239 241 244 249 250 256 253 253 252 249 264 244 273 282 291 294 292 293 297 299 310 314 315 320 324 322 315 304 305 303 310 308
245 245 245 248 250 248 247 236 233 231 237 240 232 232 225 227 233 234 242 243 244 244 244 248 251 255 250 260 252 265 276 285 290 286 285 290 294 300 308 312 317 319 322 313 301 299 300 305 302
248 245 245 243 246 248 249 240 230 232 233 232 233 234 237 228 221 228 236 237 242 247 243 251 256 258 258 249 269 263 273 282 287 286 284 284 288 296 302 307 311 312 315 310 301 296 298 302 298
249 250 249 246 246 248 248 248 241 235 236 234 233 234 230 230 219 220 227 237 239 243 250 254 256 257 262 261 260 265 270 279 282 283 283 282 285 294 300 303 307 304 310 308 299 295 294 299 297
259 257 256 252 250 249 252 249 246 243 242 243 239 235 239 233 220 219 224 230 239 242 242 247 251 253 252 260 260 263 273 283 285 285 285 284 287 291 302 302 309 306 308 303 297 292 293 298 297
265 262 259 258 257 258 253 250 247 247 247 244 245 244 241 239 231 227 220 229 233 237 244 250 250 252 256 257 263 266 271 277 277 282 285 285 287 290 299 299 302 304 304 298 293 289 293 295 296
269 266 265 263 258 257 256 251 249 246 247 246 242 245 246 245 240 233 229 230 232 236 238 243 249 253 253 257 260 263 269 271 282 278 274 274 281 286 292 295 297 298 297 292 288 286 292 294 300
273 272 272 270 267 264 261 261 249 248 247 247 246 244 242 242 242 241 236 231 232 233 238 245 245 248 257 261 264 274 273 263 256 261 265 269 274 281 288 291 291 290 288 287 283 285 291 296 298
273 271 270 269 267 266 262 262 249 248 248 247 249 246 244 243 244 241 239 234 234 236 239 243 247 251 250 257 264 260 259 260 251 250 258 265 270 277 280 284 286 281 282 279 280 285 290 292 294
293 288 280 276 272 266 265 263 252 255 251 246 241 244 243 242 242 241 239 237 231 233 235 240 248 253 257 259 260 256 251 251 256 262 265 268 272 274 276 278 278 276 277 276 280 285 288 289 291
309 320 307 288 276 273 266 262 259 257 255 249 244 239 241 240 240 242 244 243 237 229 230 232 238 244 249 254 255 254 250 251 258 261 269 266 269 272 272 276 272 275 276 278 281 283 288 287 288
295 305 296 284 280 265 255 271 267 254 256 253 251 248 239 238 238 238 241 243 243 239 230 238 238 244 248 249 251 252 251 247 254 255 262 266 270 269 273 269 271 272 277 278 278 283 284 283 290
293 298 293 263 267 269 272 263 251 252 266 259 252 246 248 241 236 235 236 238 241 242 241 231 239 245 248 251 250 249 249 247 251 259 268 267 267 270 263 265 270 277 277 276 277 280 280 281 284
287 292 290 262 270 275 269 260 258 257 260 265 268 261 250 241 235 233 232 235 236 238 240 238 235 240 247 250 250 246 247 250 254 261 262 262 263 262 259 266 271 274 271 271 275 278 279 278 279
273 281 282 261 261 273 275 272 275 286 270 270 257 256 256 245 229 228 228 228 232 233 235 239 233 237 240 244 246 243 248 255 262 257 254 254 256 258 260 267 271 266 268 271 274 275 274 273 279
296 287 268 263 261 268 278 271 299 291 292 280 256 259 260 247 225 220 223 226 228 229 230 232 228 225 228 233 237 239 246 252 255 248 246 248 251 254 261 265 260 261 265 274 275 281 275 276 281